Flag for United Arab Emirates Weather past 2 weeks in Sharjah, Sharjah, United Arab Emirates

Now
88 °F

Sunny.


Feels Like: 90 °F
Forecast: 76 / 92 °F
Wind: 15 mph from Northwest

Location: Sharjah International Airport

Current Time: Oct 24, 2014 at 5:37:51 PM

Latest Report: Oct 24, 2014 at 5:00 PM


Visibility: 10 mi

Pressure: 29.83 "Hg

Humidity: 49%

Dew point: 66 °F

Location of SharjahLocation

Historic Weather in Sharjah — Graph

°F

Sharjah temperature yesterday

Maximum temperature yesterday: 91 °F (at 11:00 AM)
Minimum temperature yesterday: 79 °F (at 5:00 AM)
Average temperature yesterday: 85 °F

Past Weeks' High & Low Weather Summary

 TemperatureHumidityPressure
High104 °F (Oct 14, 2:00 PM)89% (Oct 13, 5:00 AM)30.01 "Hg (Oct 13, 5:00 AM)
Low72 °F (Oct 24, 5:00 AM)9% (Oct 14, 2:00 PM)29.74 "Hg (Oct 9, 4:00 PM)
Average88 °F51%29.89 "Hg
* Reported Oct 9 4:00 PM — Oct 24 4:00 PM, Sharjah, Weather by CustomWeather, © 2014

Note: Actual official high and low records may vary slightly from our data, if they occured in-between our weather recording intervals... More about our weather records

Advertising

Sharjah weather history for previous 24 hours

 ConditionsComfort  
Time TempWeatherWind HumidityBarometerVisibility
4:00 PM
Oct 24
90 °FSunny.14 mph46%29.83 "Hg10 mi
3:00 PM91 °FSunny.13 mph41%29.83 "Hg10 mi
2:00 PM93 °FPassing clouds.9 mph36%29.83 "HgN/A
1:00 PM93 °FPassing clouds.5 mph34%29.86 "HgN/A
12:00 PM91 °FSunny.3 mph36%29.89 "Hg10 mi
11:00 AM88 °FSunny.3 mph43%29.92 "Hg10 mi
10:00 AM84 °FSunny.2 mph45%29.95 "Hg10 mi
9:00 AM81 °FPassing clouds.3 mph58%29.95 "HgN/A
8:00 AM75 °FSunny.5 mph69%29.92 "Hg10 mi
7:00 AM72 °FSunny.2 mph73%29.92 "Hg10 mi
6:00 AM72 °FClear.7 mph73%29.89 "Hg10 mi
5:00 AM72 °FClear.6 mph73%29.89 "Hg10 mi
4:00 AM73 °FClear.5 mph69%29.89 "Hg10 mi
3:00 AM75 °FClear.5 mph65%29.89 "Hg10 mi
2:00 AM75 °FClear.3 mph69%29.89 "Hg10 mi
1:00 AM77 °FClear.5 mph65%29.92 "Hg10 mi
12:00 AM79 °FClear.6 mph61%29.92 "Hg10 mi
11:00 PM
Oct 23
81 °FClear.6 mph58%29.92 "Hg10 mi
10:00 PM82 °FClear.5 mph55%29.92 "Hg10 mi
9:00 PM84 °FPassing clouds.5 mph51%29.92 "HgN/A
8:00 PM84 °FClear.3 mph51%29.92 "Hg10 mi
7:00 PM86 °FClear.6 mph49%29.92 "Hg10 mi
6:00 PM86 °FClear.9 mph49%29.92 "Hg10 mi
5:00 PM88 °FPassing clouds.10 mph46%29.89 "HgN/A
Weather by CustomWeather, © 2014

See weather overviewHow to use our weather pages